Regional Weather Roundup
Issued by NWS Grand Forks, ND

Home | Current Version | Previous Version | Graphics & Text | Print | Product List | Glossary On
Versions: 1 2 3 4 5 6 7 8 9 10 11 12 13 14 15 16 17 18 19 20 21 22 23 24 25 26 27 28 29 30 31 32 33 34 35 36 37 38 39 40 41 42 43 44 45 46 47 48 49 50
000
ASUS43 KFGF 270331
RWRFGF
PRAIRIE TO PINES  WEATHER ROUNDUP
NATIONAL WEATHER SERVICE EASTERN NORTH DAKOTA/GRAND FORKS ND
1000 PM CDT MON JUN 26 2017

 **SATELLITE DATA USED TO AUGMENT SKY COVER AT AUTOMATED STATIONS**
 *****  WEATHER ACROSS EASTERN NORTH DAKOTA  *****

CITY           SKY/WX    TMP DP  RH WIND       PRES   REMARKS
GRAND FORKS    FAIR      59  46  62 SW3       30.04S
GRAND FRKS AFB FAIR      57  45  63 CALM      30.05F
DEVILS LAKE    FAIR      60  49  66 SE7       30.04F
FARGO          FAIR      64  38  38 SW5       30.06F
WAHPETON ARPT  FAIR      55  39  54 SW6       30.10R
$$

 ***** WEATHER ACROSS CENTRAL AND WESTERN NORTH DAKOTA  *****

CITY           SKY/WX    TMP DP  RH WIND       PRES   REMARKS
BISMARCK       FAIR      62  45  53 SE9       30.01F
MINOT          FAIR      66  42  41 E9        29.94F
JAMESTOWN      FAIR      60  42  51 SE6       30.06F
MINOT AFB      FAIR      59  45  59 SE9       29.92F
GARRISON         N/A     66  45  46 SE13      29.95F
WILLISTON      FAIR      75  40  28 SE10      29.86F
DICKINSON      FAIR      65  35  33 SE13      29.93F
HETTINGER      FAIR      68  40  35 SE15      30.00F
$$

 *****  OTHER AIRPORT OBSERVATIONS IN OUR AREA  *****

CITY           SKY/WX    TMP DP  RH WIND       PRES   REMARKS
WALHALLA       NOT AVBL
GRAFTON AIRPOR FAIR      57  41  54 SW7       30.04F
VALLEY CITY AR FAIR      57  41  54 CALM      30.08F
CANDO          NOT AVBL
CAVALIER APRT  FAIR      61  46  59 SW5       30.02S
GWINNER        CLOUDY    55  48  76 S7        30.09S
ROLLA            N/A     57  43  58 S8        30.01S
 ***** THE ABOVE OBSERVATIONS ARE NON NWS ARE NOT QUALITY
       CONTROLLED AND MAY MIS-REPORT RAIN FOR SNOW...
$$

  *****  WEATHER ACROSS NORTHERN MINNESOTA  *****

CITY           SKY/WX    TMP DP  RH WIND       PRES   REMARKS
FLAG ISLAND    FAIR      61  54  77 CALM      30.01R
WARROAD        FAIR      61  48  63 W5        30.04R
ROSEAU         FAIR      57  46  67 CALM      30.03S
HALLOCK        FAIR      55  48  76 S5        30.02S
THF RVR FALLS  FAIR      59  46  62 SW3       30.06S
BAUDETTE       FAIR      55  51  86 CALM      30.03S
WASKISH        FAIR      61  52  72 W5        30.05R
CROOKSTON      FAIR      59  46  63 SW5       30.06R
STEPHEN NDAWN    N/A     61  41  48 SW3         N/A
GREENBUSH NDAW   N/A     57  50  77 S3          N/A
$$
  *****  WEATHER ACROSS CENTRAL AND WEST MINNESOTA  *****

CITY           SKY/WX    TMP DP  RH WIND       PRES   REMARKS
FOSSTON        FAIR      52  43  71 CALM      30.08S
BEMIDJI        FAIR      55  44  65 SW3       30.07S
PARK RAPIDS    FAIR      57  42  57 CALM      30.08S
ELBOW LAKE     FAIR      59  45  58 W5        30.11S
WADENA         FAIR      55  45  67 CALM      30.10R
DETROIT LAKES  FAIR      59  41  51 CALM      30.11R
MOORHEAD       FAIR      63  37  39 CALM      30.08S
FERGUS FALLS   FAIR      61  43  51 SW5       30.08R
MORRIS MN      FAIR      61  43  51 CALM      30.11S
STAPLES        FAIR      55  43  62 CALM      30.10R
$$
  *****  WEATHER ELSEWHERE ACROSS MINNESOTA  *****

CITY           SKY/WX    TMP DP  RH WIND       PRES   REMARKS
DULUTH         MOCLDY    55  50  83 W8        30.05R
INTRNTL FALLS  FAIR      50  47  89 CALM      30.02R
ELY            FAIR      52  48  87 CALM      30.03S
CLOQUET        MOCLDY    55  46  71 W3        30.06R
WHEATON        FAIR      57  46  67 SE3       30.12S
BRAINERD       FAIR      54  46  74 S3        30.09S
HIBBING        FAIR      52  47  83 CALM      30.04S
ALEXANDRIA     FAIR      57  43  59 SW5       30.12S
SAINT CLOUD    FAIR      56  47  71 CALM      30.10R
MINNEAPOLIS    FAIR      64  43  46 W5        30.10R
$$

  *****  WEATHER ACROSS SOUTH DAKOTA  *****

CITY           SKY/WX    TMP DP  RH WIND       PRES   REMARKS
SIOUX FALLS    FAIR      57  47  69 E5        30.13S
BROOKINGS      FAIR      60  39  45 CALM      30.14S
WATERTOWN      FAIR      60  40  47 SE3       30.13S
HURON          FAIR      61  40  45 E5        30.11S
SISSETON         N/A     58  46  64 SW7       30.10S
ABERDEEN       FAIR      56  42  59 S8        30.10S
MITCHELL       FAIR      60  42  51 SE6       30.12S
PIERRE         FAIR      60  43  53 SE7       30.06F
MOBRIDGE       FAIR      65  35  33 SE15      30.04F
RAPID CITY     FAIR      69  39  33 SE16      30.01F
$$

  *****  SOME WEATHER IN NEARBY STATES *****

CITY           SKY/WX    TMP DP  RH WIND       PRES   REMARKS
GLASGOW MT     FAIR      79  33  19 SE13      29.73F
GREAT FALLS MT FAIR      77  45  32 NE7       29.76R
CHEYENNE WY    FAIR      70  47  43 SE15      30.16S
SCOTTSBLUFF NE FAIR      73  43  33 SE20      30.07R
OMAHA NE       FAIR      60  52  74 N5        30.12R
DES MOINES IA  FAIR      66  43  43 N5        30.13R
DAVENPORT IA   FAIR      56  47  71 N6        30.12R
CHICAGO IL     FAIR      61  44  53 NW9       30.08R
EAU CLAIRE WI  FAIR      54  47  77 SW3       30.08S
LA CROSSE WI   FAIR      63  49  60 CALM      30.10R
$$

  *****  SOME NATIONAL WEATHER *****

CITY           SKY/WX    TMP DP  RH WIND       PRES   REMARKS
LA GUARDIA NY  FAIR      72  59  63 S8        29.98R
RALEIGH NC     MOCLDY    72  58  61 CALM      30.05R
ATLANTA GA     FAIR      77  56  48 NE8       30.09R
NEW ORLEANS LA FAIR      80  71  74 SE6       30.04R
OKLAHOMA CITY  FAIR      74  55  51 SE7       30.04R
ALBUQUERQUE NM MOCLDY    70  51  51 SE16G23   30.18R
SALT LAKE CITY MOCLDY    93  33  12 SW14G30   29.87R
LOS ANGELES CA FAIR      71  62  73 W5        29.88S
BOISE ID       FAIR      80  52  37 NW5       29.81R
SEATTLE WA     FAIR      66  53  63 S12       29.97R
$$

*** WEATHER ACROSS MANITOBA...SASKATCHEWAN AND ONTARIO ***
                ***ONTARIO***

CITY           SKY/WX    TMP DP  RH WIND       PRES   REMARKS
GERALDTON      PTCLDY    52  46  82 W5        29.92S
THUNDER BAY    MOCLDY    55  54  94 W7        29.97R
SIOUX LOOKOUT  PTCLDY    46  46 100 S3        29.97S
TORONTO        PTCLDY    55  48  76 W8        29.93R
BIG TROUT LK   MOCLDY    54  48  82 S7        29.79F
PICKLE LAKE    NOT AVBL
DRYDEN         CLEAR     59  48  67 SW7       29.99S
KENORA         PTCLDY    63  43  48 W5        30.01R
$$
                *** MANITOBA***

CITY           SKY/WX    TMP DP  RH WIND       PRES   REMARKS
BRANDON        MOCLDY    61  45  55 S7        29.96F
DAUPHIN        CLEAR     59  46  63 S7        29.91F
ISLAND LAKE    MOCLDY    68  43  40 W14G22    29.80
PILOT MOUND      N/A     52  45  76 S8          N/A
THE PAS        MOCLDY    66  46  48 SW7       29.81F
THOMPSON       MOCLDY    66  39  37 W7        29.74S
WINNIPEG       PTCLDY    64  45  48 SW7       29.99F
LYNN LAKE      CLEAR     70  37  30 SW3       29.74F
CHURCHILL      MOCLDY    41  39  93 NE20G26   29.80R
GILLAM         TSTM      55  52  88 NE5       29.74S
$$
                ***SASKATCHEWAN***

CITY           SKY/WX    TMP DP  RH WIND       PRES   REMARKS
ESTEVAN        MOCLDY    66  46  48 SE10      29.88F
KINDERSLEY     MOCLDY    73  50  43 SE13      29.58F
LLOYDMINSTER   PTCLDY    72  54  53 SE13      29.56F
PRINCE ALBERT  CLOUDY    66  48  52 E7        29.75F
REGINA         PTCLDY    70  46  43 SE16G23   29.78F
YORKTON        PTCLDY    64  48  55 SE9       29.86F
N. BATTLEFORD  CLEAR     72  52  49 E15G24    29.62F
LA RONGE       MOCLDY    66  45  45 SE3       29.73F
SASKATOON      MOCLDY    73  50  43 SE20G28   29.68F
SWIFT CURRENT  CLEAR     70  46  43 SE16      29.67F
$$
NOTE: THESE ARE AUTOMATED STATIONS WITH LIMITED QUALITY CONTROL
      "FAIR" INDICATES FEW OR NO CLOUDS BELOW 12,000 FEET WITH NO
      SIGNIFICANT WEATHER AND/OR OBSTRUCTIONS TO VISIBILITY.
      SKY/WX - SKY CONDITION AND SIGNIFICANT WEATHER.
      TMP - AIR TEMPERATURE.    DP   - DEWPOINT TEMPERATURE.
      RH  - RELATIVE HUMIDITY.  PRES - PRESSURE.
      HX  - HEAT INDEX.         WCI  - WIND CHILL INDEX.
$




USA.gov is the U.S. government's official web portal to all federal, state and local government web resources and services.